Zurück zum Katalog

QPS-SAR-11 YAMATSUMI

AktivWissenschaftVLEO
NORAD 64340·PAYLOAD·🇯🇵 Japan

Gestartet Jun 11, 2025 von Rocket Lab Launch Complex 1

Loading…

Nächste Überflüge (nächste 24 Stunden)

TLE

AktuellSource: Space-Track

Epoche: Sep 14, 2026, 12:00 UTC

1 64340U 25125A   26257.50034526  .00003717  00000-0  29067-3 0  9994
2 64340  42.0079  59.0608 0010707 338.5029  21.5347 15.02262389 69054

Verfolge QPS-SAR-11 YAMATSUMI in Echtzeit mit AllMySat

Download on the App Store